Regional Weather Roundup
Issued by NWS

Home | Current Version | Previous Version | Graphics & Text | Print | Product List | Glossary On
Versions: 1 2 3 4 5 6 7 8 9 10 11 12 13 14 15 16 17 18 19 20 21 22 23 24 25 26 27 28 29 30 31 32 33 34 35 36 37 38 39 40 41 42 43 44 45 46 47 48 49 50
000
ASUS45 KCYS 011510
RWRWY

WYOMING REGIONAL WEATHER ROUNDUP
NATIONAL WEATHER SERVICE CHEYENNE WY
800 AM MST SUN MAR 01 2015

NOTE:  "FAIR" INDICATES FEW OR NO CLOUDS BELOW 12,000 FEET
WITH NO SIGNIFICANT WEATHER AND/OR OBSTRUCTIONS TO VISIBILITY.

WYZ001-011600-
YELLOWSTONE NATIONAL PARK

CITY           SKY/WX    TMP DP  RH WIND       PRES   REMARKS
LK YELLOWSTONE   N/A    -14 -20  74 N3        30.12R
W YELLOWSTONE  NOT AVBL

$$
WYZ002>013-054>058-071-098>099-011600-
NORTHERN WYOMING

CITY           SKY/WX    TMP DP  RH WIND       PRES   REMARKS
JACKSON        CLEAR     -2  -6  84 N13       30.15R WCI -21
CODY           FAIR       9   7  92 S5        30.22R WCI   0
GREYBULL       FAIR      13   8  81 CALM      30.29R
WORLAND        FAIR      16   9  74 NE3       30.28R
SHERIDAN       FAIR       9   2  73 S5        30.26R WCI   1
BUFFALO        FAIR      12   0  58 N6        30.19R WCI   3
GILLETTE       FAIR      13   7  77 W9        30.22R WCI   1
HULETT         LGT SNOW  14  10  85 MISG      30.22R
NEWCASTLE      FAIR      14  10  85 N9        30.24R WCI   2

$$
WYZ014>020-022>026-101>103-011600-
CENTRAL WYOMING

CITY           SKY/WX    TMP DP  RH WIND       PRES   REMARKS
BIG PINEY      CLOUDY    12   7  80 SE5       30.11R WCI   4
PINEDALE       FLURRIES   9   5  85 CALM      30.12R
DUBOIS         FAIR       1  -4  78 NW5       30.08R WCI  -8
LANDER         CLOUDY    16   7  67 SW6       30.18R WCI   7
RIVERTON       CLOUDY    17  11  77 E3        30.20R
CASPER         FAIR      13   7  77 SW5       30.19R WCI   5
DOUGLAS        FAIR      16  11  80 N3        30.21R

$$
WYZ021-027>030-104>119-011600-
SOUTHERN WYOMING

CITY           SKY/WX    TMP DP  RH WIND       PRES   REMARKS
EVANSTON       CLOUDY    17  14  88 E12       30.05R WCI   4
FORT BRIDGER   CLOUDY    15  13  94 NE7       30.10R WCI   5
ROCK SPRINGS   FAIR      10   4  76 NE5       30.11R WCI   2
DIXON          CLOUDY    18  13  84 CALM      30.14R
RAWLINS        CLOUDY    11   7  84 CALM      30.11R
SARATOGA       CLOUDY    12  10  92 CALM      30.11R
LARAMIE        FLURRIES   7   4  87 N5        30.07R WCI  -2
CHEYENNE       LGT SNOW  13   9  84 N9        30.11R FOG     WCI   1
TORRINGTON     CLOUDY    18  12  77 W3        30.24R
PINE BLUFFS    CLOUDY    18  16  93 NW9       30.18R WCI   6

$$



USA.gov is the U.S. government's official web portal to all federal, state and local government web resources and services.